Location: El Bardal
(40.3663°N, 5.4422°W)
Time: 05:11:51
(UTC+00:00)

Daily predictions for brighter satellites

Satellite Brightness Start Highest point End
(mag) Time Altitude Azimuth Time Altitude Azimuth Time Altitude Azimuth
Cosmos 1825 4.0 00:04:51 23° NE 00:04:51 23° NE 00:06:26 10° NNE
SL-4 R/B 3.0 00:02:22 10° NW 00:06:18 44° NNE 00:06:37 43° NE
SL-12 R/B(2) 4.3 00:07:46 48° SSE 00:09:33 56° ESE 00:18:27 10° NE
Cosmos 2297 Rocket 2.3 00:09:02 59° WSW 00:09:55 70° WNW 00:15:35 10° NNE
NOSS 3-2 (A) 4.3 00:12:23 28° E 00:12:23 28° E 00:16:19 10° NE
Cosmos 2219 4.1 00:14:01 34° E 00:14:01 34° E 00:18:49 10° NE
Okean 1 Rocket 4.1 00:12:15 10° N 00:16:03 38° ENE 00:16:03 38° ENE
ATLAS 2AS CENTAUR R/B 4.4 00:15:12 10° WNW 00:18:42 15° WSW 00:19:00 15° WSW
PSLV R/B 3.9 00:17:47 10° N 00:21:22 59° NNW 00:21:22 59° NNW
USA 281 4.1 00:21:14 31° WSW 00:21:58 32° WSW 00:27:45 10° NW
Cosmos 783 Rocket 4.4 00:17:25 10° NNW 00:22:44 81° ENE 00:22:58 78° ESE
Cosmos 1354 Rocket 4.2 00:25:11 60° W 00:25:42 63° WNW 00:30:59 10° NNE
Meteor 2-5 Rocket 4.4 00:28:42 41° WSW 00:29:54 46° WNW 00:35:31 10° N
Cosmos 2219 Rocket 4.4 00:27:59 10° WNW 00:30:10 12° W 00:30:17 12° W
Cosmos 2084 Rocket 4.2 00:31:32 48° NW 00:31:32 48° NW 00:35:24 10° NNE
COSMOS 2428 3.9 00:28:21 10° NW 00:32:52 28° W 00:32:52 28° W
Cosmos 2098 Rocket 4.3 00:30:04 10° NNW 00:36:28 54° W 00:37:27 49° WSW
H-2A R/B 2.4 00:32:19 10° N 00:35:54 60° NNW 00:35:54 60° NNW
Cosmos 2263 Rocket 2.8 00:42:06 41° ESE 00:42:11 41° ESE 00:47:23 10° NE
Cosmos 2181 Rocket 4.1 00:37:26 10° NNW 00:43:30 59° W 00:44:18 54° SW
Cosmos 332 Rocket 4.2 00:48:14 52° WNW 00:48:25 52° WNW 00:53:13 10° N
Cosmos 2151 Rocket 4.4 00:45:15 10° NNW 00:48:45 43° WNW 00:48:45 43° WNW
ALOS 2 4.5 00:51:50 20° WNW 00:51:50 20° WNW 00:54:19 10° NW
Cosmos 2074 Rocket 4.0 00:49:56 58° SW 00:51:01 69° W 00:57:13 10° N
Cosmos 1455 Rocket 4.0 00:48:38 10° N 00:52:51 40° ENE 00:52:57 40° E
Okean 2 Rocket 3.9 00:51:45 10° NNW 00:55:21 42° WNW 00:55:21 42° WNW
Cosmos 1025 Rocket 3.2 01:02:30 68° NNW 01:02:30 68° NNW 01:06:21 10° N
Helios 1A Rocket 4.3 01:02:09 28° ENE 01:02:16 28° ENE 01:05:34 10° N
Cosmos 1461 4.2 01:06:45 29° ENE 01:06:45 29° ENE 01:09:09 10° NE
Cosmos 990 Rocket 4.1 01:08:08 57° W 01:08:33 60° WNW 01:13:38 10° NNE
CENTAUR R/B 2.7 01:11:48 42° WSW 01:13:31 58° NW 01:20:15 10° NNE
In-Cosmos 22 Rocket 4.3 01:14:28 56° SSE 01:15:30 68° E 01:21:18 10° NNE
IDEFIX/ARIANE 42P 3.8 01:19:50 10° NE 01:24:26 31° E 01:25:41 27° ESE
SL-16 R/B 2.1 01:19:33 10° NNW 01:25:17 89° ENE 01:26:33 56° SSE
Cosmos 1869 4.3 01:26:28 10° N 01:29:52 36° ENE 01:29:52 36° ENE
Nadezhda 3 Rocket 4.2 01:24:38 10° NNW 01:30:43 55° W 01:31:50 48° SW
Cosmos 1538 Rocket 3.9 01:25:50 10° NNW 01:30:59 65° WSW 01:31:13 64° WSW
Cosmos 2237 Rocket 3.6 01:27:03 10° NW 01:30:46 23° W 01:30:46 23° W
Cosmos 2082 3.6 01:31:20 60° SW 01:32:22 80° WNW 01:38:01 10° NNE
CZ-4C R/B 4.5 01:30:23 10° WNW 01:33:13 15° NNW 01:36:25 10° N
Cosmos 2218 Rocket 4.3 01:31:20 41° SSE 01:33:21 60° E 01:39:25 10° NNE
Cosmos 2227 Rocket 3.6 01:32:02 23° W 01:34:08 29° WNW 01:39:03 10° N
CZ-2C R/B 4.3 01:32:03 13° ESE 01:35:57 29° ENE 01:40:31 10° N
Cosmos 2366 rocket 4.1 01:37:03 44° SSE 01:39:04 70° E 01:45:18 10° NNE
CZ-2D R/B 3.4 01:35:20 10° NE 01:39:58 30° E 01:41:46 24° SE
Cosmos 372 Rocket 3.9 01:40:51 64° SW 01:41:39 80° WNW 01:46:54 10° NNE
MOZ.5/SAFIR/RUBIN 5/SL-8 4.0 01:43:48 47° SE 01:44:57 63° ENE 01:49:32 10° N
CRYOSAT 2 4.3 01:41:19 10° N 01:46:11 66° W 01:46:43 60° WSW
Cosmos 1867 4.4 01:47:41 33° SE 01:48:46 37° ESE 01:53:45 10° NE
Meteor 1-11 4.2 01:49:40 52° SSW 01:51:06 76° W 01:56:56 10° N
Cosmos 2219 4.3 01:55:55 26° W 01:57:53 33° WNW 02:02:57 10° N
Aureole 1 Rocket 4.3 01:58:23 24° WNW 01:58:34 24° WNW 02:02:01 10° N
Cosmos 923 Rocket 3.9 01:53:41 10° NNW 01:58:58 86° WSW 02:00:28 48° SSE
NPP 3.8 01:54:07 10° NNE 01:59:29 64° ESE 02:01:12 42° SSE
Cosmos 1937 Rocket 3.7 01:59:45 49° WSW 02:00:56 63° WNW 02:06:10 10° NNE
ADEOS II 3.4 01:56:46 10° NE 02:01:24 31° E 02:03:54 21° SE
NOSS 3-2 (A) 4.2 01:59:43 27° W 02:01:59 39° NW 02:07:39 10° NNE
Cosmos 2228 3.3 01:58:34 10° N 02:02:51 62° E 02:03:53 46° SE
Cosmos 1544 Rocket 3.4 02:00:13 10° N 02:04:40 90° WSW 02:05:22 63° S
Cosmos 1898 Rocket 4.2 02:04:35 34° W 02:05:51 40° WNW 02:10:44 10° N
Cosmos 2227 4.2 02:05:48 45° S 02:07:37 76° ESE 02:13:23 10° NNE
Cosmos 1606 2.8 02:04:17 10° NNW 02:07:22 58° NW 02:07:22 58° NW
SL-16 R/B 4.2 02:02:43 10° ESE 02:08:04 31° ENE 02:13:24 10° N
NOSS 3-2 (C) 3.1 02:06:43 46° SW 02:08:16 75° NW 02:14:16 10° NNE
SL-8 Rocket 4.1 02:07:58 41° SW 02:09:56 58° W 02:16:03 10° N
H-2A R/B 3.3 02:07:02 10° NNE 02:11:02 71° ESE 02:11:32 61° SSE
ALOS 4.3 02:08:29 10° NE 02:11:52 20° E 02:14:40 12° SE
Iridium 921 4.4 02:12:33 74° NNW 02:12:33 74° NNW 02:15:46 10° N
USA 267 4.1 02:08:50 10° ENE 02:14:47 37° SE 02:17:24 27° S
Cosmos 1975 Rocket 4.4 02:14:47 25° W 02:15:05 25° WNW 02:18:45 10° NNW
Cosmos 1844 4.5 02:14:10 28° SSE 02:16:41 44° ESE 02:22:09 10° NE
Resurs 1-4 Rocket 2.2 02:11:39 10° NNE 02:16:56 71° ESE 02:19:00 37° S
Cosmos 2263 Rocket 3.5 02:23:46 21° W 02:26:12 28° NW 02:30:59 10° N
Cosmos 1727 Rocket 4.0 02:26:29 10° N 02:32:51 86° E 02:37:14 22° S
Cosmos 921 Rocket 3.9 02:32:33 10° N 02:36:38 46° ENE 02:40:31 11° SE
COSMOS 2441 4.3 02:33:27 10° NNE 02:38:17 84° ESE 02:40:24 34° S
Cosmos 1606 Rocket 4.1 02:35:46 10° N 02:40:09 56° E 02:43:18 18° SSE
Cosmos 1680 Rocket 3.7 02:35:48 10° NNW 02:40:47 48° WSW 02:42:30 35° SSW
Cosmos 2112 Rocket 4.1 02:38:23 10° NNW 02:43:27 54° WSW 02:45:38 31° SSW
Cosmos 1536 Rocket 4.0 02:43:23 37° WSW 02:44:35 47° W 02:48:52 10° N
Cosmos 1844 Rocket 2.6 02:42:29 32° SSW 02:45:12 88° ESE 02:50:49 10° NNE
Meteor 2-13 Rocket 4.4 02:40:28 10° NNW 02:46:33 74° W 02:50:33 23° S
BREEZE-M DEB (TANK) 4.2 02:42:26 24° SSW 02:46:58 39° SSE 02:50:39 10° E
Cosmos 1818 3.8 02:42:14 10° NW 02:47:28 46° WSW 02:50:04 27° S
Meteor 1-27 4.3 02:45:17 10° NNW 02:51:03 65° W 02:54:33 24° S
Cosmos 1726 Rocket 4.0 02:50:55 10° N 02:55:19 60° E 02:59:15 12° SSE
Meteor 1-28 Rocket 3.4 02:53:03 19° SSE 02:55:24 63° ENE 02:58:55 10° N
SEDSat Delta rocket 4.1 02:59:53 22° S 02:59:53 22° S 03:02:47 10° ESE
IDEFIX/ARIANE 42P 3.6 02:59:16 10° N 03:03:53 32° WNW 03:06:26 21° WSW
SL-16 R/B 4.1 03:06:45 10° WNW 03:08:22 11° W 03:08:22 11° W
ASTEX 1 3.3 03:06:04 18° S 03:09:41 78° W 03:14:34 10° N
Cosmos 1437 Rocket 3.9 03:10:20 24° WSW 03:11:28 28° WNW 03:14:47 10° NNW
Delta 2 Rocket 3.8 03:11:53 29° SW 03:12:56 35° S 03:16:49 10° SE
CZ-2C R/B 3.6 03:07:56 10° N 03:13:02 44° WNW 03:16:00 22° SW
Cosmos 1603 3.7 03:08:34 10° NNW 03:14:14 61° WSW 03:19:49 10° S
Iridium 2 2.4 03:13:45 50° SSW 03:14:16 81° W 03:16:44 10° N
USA 238 DEB 4.0 03:10:27 20° WSW 03:14:41 52° NW 03:21:12 10° NNE
USA 238 4.0 03:10:29 20° WSW 03:14:43 53° NW 03:21:16 10° NNE
Envisat 4.0 03:10:00 10° NNE 03:14:50 43° E 03:19:38 10° S
CZ-2C R/B 3.3 03:13:32 23° SW 03:16:03 34° W 03:20:55 10° NNW
CZ-2C R/B 4.1 03:12:24 10° NE 03:16:14 26° E 03:20:05 10° SSE
Cosmos 1048 Rocket 4.0 03:11:33 10° NNW 03:16:48 87° WSW 03:22:06 10° SSE
Cosmos 1607 4.1 03:13:04 10° NNW 03:19:30 84° ENE 03:25:46 10° SSE
CZ-2D R/B 3.1 03:15:12 10° N 03:19:56 33° WNW 03:23:04 18° WSW
SAR-Lupe-1 4.2 03:16:22 10° NNE 03:19:57 72° ESE 03:22:27 19° S
Cosmos 1943 4.0 03:18:05 10° NW 03:22:57 31° WSW 03:26:12 18° SSW
Cosmos 1125 Rocket 3.5 03:20:37 19° SSW 03:24:30 85° WNW 03:29:50 10° NNE
FENGYUN 3A 4.1 03:20:54 10° N 03:26:01 46° WNW 03:29:44 18° SW
Cosmos 494 Rocket 4.3 03:25:08 10° NNW 03:30:08 46° WSW 03:35:06 10° S
Cosmos 1605 Rocket 4.2 03:24:33 10° S 03:30:43 73° E 03:36:51 10° N
UNK 3.7 03:27:25 10° SSE 03:32:01 88° WSW 03:36:38 10° NNW
Orbus 7S? 4.0 03:29:13 10° WNW 03:32:28 44° SW 03:38:43 10° SSE
Cosmos 1892 Rocket 3.9 03:30:54 19° SSW 03:33:51 49° W 03:38:09 10° N
Cosmos 2058 Rocket 3.1 03:31:13 10° N 03:35:40 87° E 03:40:02 10° S
Cosmos 2150 Rocket 4.2 03:34:24 11° S 03:39:25 72° ESE 03:44:42 10° NNE
ADEOS II 3.1 03:36:21 10° N 03:40:57 32° WNW 03:44:46 14° SW
Iridium 4 Rocket 3.2 03:39:16 10° N 03:43:47 80° W 03:48:42 10° S
Meteor 2-19 Rocket 4.4 03:39:13 10° N 03:45:23 80° W 03:51:32 10° S
ALOS 2.9 03:44:54 10° N 03:49:11 39° WNW 03:52:58 13° SW
USA 81 4.2 03:44:43 10° NNW 03:49:52 56° W 03:55:00 10° SSW
NOSS 2-2 (C) 2.9 03:47:34 14° SSW 03:50:25 72° ESE 03:53:30 10° NE
SL-16 R/B 2.9 03:45:31 10° S 03:51:25 43° W 03:57:20 10° NNW
Cosmos 1934 Rocket 4.5 03:46:07 12° SSW 03:51:39 46° WNW 03:57:46 10° N
Cosmos 2123 Rocket 4.3 03:47:13 10° NNW 03:53:05 47° W 03:58:59 10° SSW
Alouette 2 Rocket 4.3 03:49:25 13° SW 03:53:18 36° WNW 03:56:50 10° N
Cosmos 1544 2.5 03:52:13 15° SSW 03:54:11 46° W 03:56:44 10° N
SWAS 4.4 03:51:01 11° SSW 03:55:04 83° ESE 03:59:17 10° NNE
Resurs 1-4 Rocket 4.0 03:53:05 10° NNW 03:56:06 16° WNW 03:59:07 10° W
ATLAS 5 CENTAUR R/B 1.0 03:54:25 12° SSW 03:57:24 67° ESE 04:00:50 10° NE
USA 267 3.5 03:51:32 10° NE 03:57:58 64° NW 04:04:24 10° WSW
Cosmos 1833 Rocket 4.2 03:53:58 10° N 03:59:17 41° ENE 04:04:35 10° SE
NOSS 2-2 (D) 3.4 03:56:25 10° SSW 03:59:52 53° ESE 04:02:56 10° NE
Cosmos 1626 Rocket 3.6 03:55:37 10° S 04:00:02 82° W 04:04:29 10° N
YAOGAN 6 2.6 03:56:57 10° NNE 04:00:08 64° E 04:03:16 10° S
Cosmos 1812 3.4 03:57:10 10° NNW 04:00:20 30° W 04:03:28 10° SSW
BlueWalker 3 4.4 04:01:10 10° NNW 04:04:20 25° NNE 04:07:31 10° E
NOSS 2-3 (E) 3.3 04:01:21 10° SSW 04:04:58 68° ESE 04:08:46 10° NE
Thor Agena Rocket 4.0 04:03:43 10° NNE 04:08:59 67° ESE 04:14:12 10° S
NOSS 2-3 (C) 3.2 04:06:54 10° SSW 04:10:31 79° ESE 04:14:21 10° NE
Cosmos 1515 3.9 04:07:04 10° N 04:10:32 64° E 04:13:58 10° SSE
Meteor 2-3 Rocket 3.9 04:07:07 10° S 04:12:54 87° E 04:18:44 10° N
Cosmos 1378 3.9 04:10:42 10° N 04:13:53 46° E 04:17:01 10° SSE
BREEZE M DEB (TANK) 4.4 04:06:20 10° WNW 04:15:18 52° NNE 04:18:29 10° E
Cosmos 1782 2.7 04:12:23 10° N 04:16:16 81° W 04:20:04 10° S
CZ-4 R/B 4.3 04:14:25 10° N 04:19:11 51° WNW 04:23:59 10° SW
Cosmos 2298 Rocket 4.5 04:15:29 10° SW 04:20:37 49° WNW 04:25:47 10° N
